Probability
0 0 0 0 0 0 0 0 0 0 0 0 0 0 0 0 0 0 3 3 0 0 0 0 0 0 0 3 0 0 0 0 0 0 0 0 0 0 0 0 0 0 0 0
0 0 0 0 0 0 0 0 0 0 0 0 0 0 0 0 3 3 3 3 0 0 0 0 0 0 0 3 0 0 0 0 0 0 0 0 0 0 0 0 0 0 0 0
0 0 0 0 0 0 0 0 0 0 0 0 0 0 0 0 3 3 3 3 3 0 0 0 0 0 0 0 0 0 0 0 0 0 0 0 0 0 0 0 0 0 0 0
0 0 0 0 0 0 0 0 0 0 0 0 0 0 0 0 0 0 3 3 3 3 0 0 0 0 0 0 0 0 0 0 0 0 0 0 0 0 0 0 0 0 0 0
0 0 0 0 0 0 0 0 0 0 0 0 0 0 0 0 0 0 3 3 3 3 0 0 0 0 0 0 0 0 0 0 0 0 0 0 0 0 0 0 0 0 0 0
0 0 0 0 0 0 0 0 0 0 0 0 0 0 0 0 0 0 3 3 3 3 0 0 0 0 0 0 0 0 0 0 0 0 0 0 0 0 0 0 0 0 0 0
0 0 0 0 0 0 0 0 0 0 0 0 0 0 0 0 0 0 0 3 3 3 0 0 0 0 0 0 0 0 0 0 0 0 0 0 0 0 0 0 0 0 0 0
0 0 0 0 0 0 0 0 0 0 0 0 0 0 0 0 0 0 0 0 0 0 0 0 0 0 0 0 0 0 0 0 0 0 0 0 0 0 0 0 0 0 0 0
0 0 0 0 0 0 0 0 0 0 0 0 0 0 0 0 0 0 0 0 0 0 0 0 0 0 0 0 0 0 0 0 0 0 0 0 0 0 0 0 0 0 0 0
0 0 0 0 0 0 0 0 0 0 0 0 0 0 0 0 0 0 0 0 0 0 0 0 0 0 0 0 0 0 0 0 0 0 0 0 0 0 0 0 0 0 0 0
0 0 0 0 0 0 0 0 0 0 0 0 0 0 0 0 0 0 0 0 0 0 0 0 0 0 0 0 0 0 0 0 0 0 0 0 0 0 0 0 0 0 0 0
0 0 0 0 0 0 0 0 0 0 0 0 0 0 0 0 0 0 0 0 0 0 0 0 0 0 0 0 0 0 0 0 0 0 0 0 0 0 0 0 0 0 0 0
0 0 0 0 0 0 0 0 0 0 0 0 0 0 0 0 0 0 0 0 0 0 0 0 0 0 0 0 0 0 0 0 0 0 0 0 0 0 0 0 0 0 0 0
0 0 0 0 0 0 0 0 0 0 0 0 0 0 0 0 0 0 0 0 0 0 0 0 0 0 0 0 0 0 0 0 0 0 0 0 0 0 0 0 0 0 0 0
0 0 0 0 0 0 0 0 0 0 0 0 0 0 0 0 0 0 0 0 0 0 0 0 0 0 0 0 0 0 0 0 0 0 0 0 0 0 0 0 0 0 0 0
0 0 0 0 0 0 0 0 0 0 0 0 0 0 0 0 0 0 0 0 0 0 0 0 0 0 0 0 0 0 0 0 0 0 0 0 0 0 0 0 0 0 0 0
0 0 0 0 0 0 0 0 0 0 0 0 0 0 0 0 0 0 0 0 0 0 0 0 0 0 0 0 0 0 0 0 0 0 0 0 0 0 0 0 0 0 0 0
0 0 0 0 0 0 0 0 0 0 0 0 0 0 0 0 0 0 0 0 0 0 0 0 0 0 0 0 0 0 0 0 0 0 0 0 0 0 0 0 0 0 0 0
0 0 0 0 0 0 0 0 0 0 0 0 0 0 0 0 0 0 0 0 0 0 0 0 0 0 0 0 0 0 0 0 0 0 0 0 0 0 0 0 0 0 0 0
0 0 0 0 0 0 0 0 0 0 0 0 0 0 0 0 0 0 0 0 0 0 0 0 0 0 0 0 0 0 0 0 0 0 0 0 0 0 0 0 0 0 0 0
0 0 0 0 0 0 0 0 0 0 0 0 0 0 0 0 0 0 0 0 0 0 0 0 0 0 0 0 0 0 0 0 0 0 0 0 0 0 0 0 0 0 0 0
0 0 0 0 0 0 0 0 0 0 0 0 0 0 0 0 0 0 0 0 0 0 0 0 0 0 0 0 0 0 0 0 0 0 0 0 0 0 0 0 0 0 0 0
0 0 0 0 0 0 0 0 0 0 0 0 0 0 0 0 0 0 0 0 0 0 0 0 0 0 0 0 0 0 0 0 0 0 0 0 0 0 0 0 0 0 0 0
0 0 0 0 0 0 0 0 0 0 0 0 0 0 0 0 0 0 0 0 0 0 0 0 0 0 0 0 0 0 0 0 0 0 0 0 0 0 0 0 0 0 0 0
0 0 0 0 0 0 0 0 0 0 0 0 0 0 0 0 0 0 0 0 0 0 0 0 0 0 0 0 0 0 0 0 0 0 0 0 0 0 0 0 0 0 0 0
0 0 0 0 0 0 0 0 0 0 0 0 0 0 0 0 0 0 0 0 0 0 0 0 0 0 0 0 0 0 0 0 0 0 0 0 0 0 0 0 0 0 0 0
0 0 0 0 0 0 0 0 0 0 0 0 0 0 0 0 0 0 0 0 0 0 0 0 0 0 0 0 0 0 0 0 0 0 0 0 0 0 0 0 0 0 0 0
Height
5780 5780 5781 5782 5783 5784 5784 5785 5786 5787 5787 5789 5789 5789 5790 5790 5790 5791 5791 5792 5793 5793 5794 5795 5795 5796 5796 5796 5795 5795 5794 5793 5792 5792 5791 5790 5789 5788 5788 5787 5786 5785 5783 5782
5773 5774 5774 5775 5777 5777 5778 5778 5779 5780 5782 5782 5782 5783 5783 5784 5785 5785 5786 5786 5786 5787 5788 5788 5789 5790 5790 5790 5789 5789 5788 5787 5787 5786 5786 5785 5784 5783 5782 5781 5780 5779 5778 5776
5767 5768 5767 5769 5771 5771 5771 5772 5773 5773 5776 5775 5775 5776 5776 5777 5778 5778 5779 5779 5780 5780 5781 5782 5782 5783 5783 5783 5783 5782 5782 5781 5781 5780 5779 5778 5777 5776 5776 5775 5774 5773 5772 5771
5760 5761 5761 5765 5764 5764 5764 5765 5766 5766 5767 5768 5768 5769 5769 5770 5771 5772 5772 5773 5773 5773 5774 5774 5775 5775 5775 5776 5776 5775 5775 5775 5774 5773 5772 5771 5770 5770 5769 5768 5768 5767 5766 5764
5753 5753 5754 5757 5757 5757 5757 5758 5758 5759 5760 5760 5761 5761 5762 5763 5763 5764 5765 5765 5766 5766 5767 5767 5767 5768 5768 5768 5768 5768 5768 5768 5767 5766 5766 5765 5764 5763 5762 5762 5761 5760 5759 5758
5745 5745 5746 5750 5749 5749 5750 5750 5752 5751 5752 5753 5753 5754 5756 5755 5755 5756 5756 5757 5758 5758 5759 5759 5760 5760 5760 5760 5760 5760 5760 5760 5760 5759 5758 5757 5757 5756 5756 5755 5754 5753 5752 5751
5737 5736 5738 5741 5741 5742 5743 5744 5744 5744 5744 5745 5745 5747 5747 5747 5747 5748 5748 5748 5749 5750 5750 5751 5751 5751 5751 5751 5752 5752 5752 5752 5752 5751 5750 5750 5750 5749 5748 5748 5747 5746 5745 5743
5728 5729 5732 5732 5732 5734 5735 5735 5735 5735 5736 5737 5737 5738 5738 5738 5738 5738 5739 5739 5740 5740 5741 5742 5742 5742 5743 5743 5743 5743 5743 5743 5743 5743 5743 5742 5742 5741 5741 5740 5739 5738 5737 5735
5721 5723 5723 5723 5723 5724 5725 5725 5726 5726 5727 5728 5728 5729 5729 5729 5729 5729 5730 5730 5730 5731 5732 5733 5733 5733 5734 5734 5734 5734 5735 5735 5735 5735 5735 5734 5734 5733 5733 5732 5731 5730 5729 5728
5711 5713 5713 5714 5714 5715 5715 5716 5717 5718 5718 5719 5719 5720 5720 5720 5720 5720 5720 5721 5721 5721 5722 5723 5724 5724 5725 5725 5725 5725 5726 5726 5726 5726 5726 5726 5726 5725 5725 5724 5723 5722 5721 5719
5701 5703 5704 5704 5705 5705 5706 5706 5707 5708 5709 5710 5710 5711 5711 5711 5711 5711 5711 5712 5712 5712 5713 5713 5714 5715 5715 5716 5716 5716 5717 5717 5717 5718 5718 5718 5717 5717 5716 5716 5714 5713 5712 5710
5692 5694 5694 5695 5695 5696 5696 5697 5698 5699 5700 5700 5700 5701 5701 5702 5702 5702 5702 5702 5702 5703 5703 5704 5704 5705 5706 5706 5706 5707 5708 5708 5708 5708 5708 5708 5708 5708 5707 5706 5705 5704 5702 5701
5682 5682 5683 5684 5685 5686 5686 5687 5688 5689 5690 5690 5691 5691 5691 5692 5692 5692 5692 5692 5693 5693 5693 5694 5694 5695 5696 5696 5697 5697 5697 5698 5698 5698 5698 5698 5698 5698 5697 5697 5695 5694 5693 5691
5671 5672 5673 5674 5675 5675 5676 5677 5678 5679 5679 5680 5680 5680 5681 5681 5682 5682 5683 5683 5683 5683 5683 5683 5684 5685 5685 5686 5686 5686 5687 5687 5687 5688 5688 5688 5688 5688 5687 5687 5686 5685 5683 5682
5661 5662 5663 5663 5664 5665 5666 5667 5668 5668 5669 5669 5669 5670 5670 5671 5671 5672 5672 5672 5672 5673 5673 5673 5673 5674 5675 5675 5675 5676 5676 5677 5677 5677 5677 5677 5677 5677 5677 5676 5675 5675 5673 5672
5651 5651 5652 5653 5654 5655 5655 5656 5657 5658 5658 5659 5659 5659 5660 5660 5661 5661 5662 5662 5662 5662 5662 5662 5663 5663 5664 5664 5664 5665 5666 5666 5666 5666 5667 5667 5667 5666 5666 5666 5665 5664 5663 5662
5641 5641 5642 5643 5643 5644 5645 5646 5647 5647 5647 5648 5648 5648 5649 5649 5650 5650 5651 5651 5651 5651 5651 5651 5652 5652 5653 5653 5654 5654 5655 5655 5655 5656 5656 5656 5656 5656 5655 5655 5654 5653 5653 5652
5631 5632 5632 5633 5633 5634 5635 5636 5636 5636 5637 5637 5637 5638 5638 5638 5638 5639 5639 5639 5640 5640 5640 5640 5641 5641 5642 5642 5643 5644 5644 5644 5644 5645 5645 5645 5645 5645 5645 5644 5643 5643 5642 5641
5621 5622 5623 5624 5624 5625 5626 5626 5626 5627 5627 5627 5627 5627 5627 5627 5627 5628 5628 5628 5629 5629 5629 5629 5629 5630 5630 5631 5632 5633 5633 5633 5634 5634 5635 5635 5635 5634 5634 5633 5633 5633 5632 5631
5613 5614 5614 5615 5615 5616 5616 5616 5617 5617 5617 5616 5617 5617 5617 5617 5617 5617 5617 5617 5618 5618 5618 5618 5618 5619 5619 5620 5621 5622 5622 5622 5623 5624 5624 5624 5624 5624 5624 5623 5623 5622 5622 5621
5605 5605 5606 5606 5607 5607 5607 5607 5607 5607 5607 5606 5606 5606 5606 5606 5606 5606 5606 5606 5607 5606 5606 5606 5607 5607 5608 5609 5609 5610 5611 5611 5612 5613 5614 5614 5614 5614 5614 5614 5613 5613 5612 5611
5596 5597 5597 5597 5597 5597 5597 5597 5597 5597 5596 5596 5596 5596 5596 5595 5595 5595 5595 5595 5595 5595 5595 5595 5596 5596 5597 5598 5599 5599 5600 5601 5602 5602 5603 5604 5604 5604 5604 5604 5603 5603 5602 5601
5588 5588 5588 5588 5588 5588 5587 5587 5587 5587 5587 5586 5586 5586 5586 5585 5585 5585 5585 5584 5584 5584 5584 5585 5585 5586 5586 5587 5588 5589 5590 5590 5591 5592 5593 5594 5594 5594 5594 5594 5593 5593 5592 5591
5579 5579 5579 5579 5578 5578 5578 5578 5578 5577 5577 5577 5577 5577 5576 5576 5576 5575 5574 5574 5574 5574 5574 5575 5575 5576 5577 5578 5579 5579 5580 5581 5582 5582 5583 5584 5584 5584 5584 5584 5583 5583 5582 5581
5570 5570 5570 5569 5569 5569 5569 5569 5569 5569 5568 5568 5568 5568 5567 5567 5567 5566 5565 5565 5565 5565 5566 5566 5567 5567 5568 5569 5570 5570 5571 5571 5572 5572 5573 5574 5574 5575 5575 5574 5573 5572 5572 5571
5561 5561 5561 5561 5560 5560 5561 5561 5561 5561 5560 5560 5559 5559 5559 5559 5558 5558 5557 5557 5557 5557 5557 5558 5558 5559 5560 5560 5561 5562 5562 5562 5563 5563 5564 5564 5565 5565 5565 5565 5564 5563 5562 5561
5552 5552 5552 5552 5552 5552 5552 5553 5553 5552 5552 5552 5551 5551 5551 5550 5550 5550 5549 5549 5549 5549 5550 5550 5550 5551 5552 5552 5553 5553 5553 5554 5554 5554 5554 5554 5555 5555 5555 5555 5554 5553 5553 5552
Wind_Speed
20 20 21 21 21 21 22 22 21 20 20 19 19 20 20 20 20 20 19 19 20 21 21 22 22 22 21 21 21 20 21 20 20 19 19 19 20 20 19 19 18 18 18 18
22 21 22 22 22 22 22 22 22 22 20 20 20 21 21 21 21 21 21 20 21 22 23 24 24 23 23 22 22 22 22 22 21 20 21 21 21 21 20 20 19 19 19 19
24 23 24 23 23 24 24 24 23 22 21 21 21 21 22 21 20 21 22 22 22 22 24 25 25 24 24 24 24 23 23 23 22 22 22 22 22 22 21 21 21 21 21 21
25 25 26 24 24 24 25 25 24 24 23 23 22 22 22 22 22 22 21 22 22 23 23 24 25 26 25 25 24 24 24 23 23 23 22 22 22 22 22 22 22 22 22 22
25 26 26 25 24 24 24 24 24 25 25 24 24 24 23 23 23 23 23 23 23 24 24 24 25 26 26 26 25 25 24 24 24 24 23 23 22 22 22 23 23 23 23 23
26 27 27 25 25 25 25 25 24 25 25 25 25 25 25 25 25 25 25 25 25 25 25 25 26 27 27 27 27 26 26 26 25 25 25 24 24 24 24 24 24 24 24 25
27 28 28 26 26 26 26 25 25 25 25 25 25 25 25 26 26 26 27 27 27 27 27 27 27 28 28 28 28 27 27 27 26 26 26 25 25 25 25 25 25 25 25 25
29 29 28 27 27 27 26 26 26 25 26 26 26 26 26 27 27 27 28 28 29 29 28 28 28 29 29 28 28 28 28 28 27 26 26 26 26 26 26 26 26 26 26 26
30 30 28 27 28 27 27 27 27 27 27 27 27 27 27 27 27 27 28 28 28 29 28 28 28 28 28 28 29 29 29 28 28 27 27 27 26 27 27 26 27 27 26 26
30 30 30 29 29 29 29 28 29 28 28 28 28 28 27 27 27 27 27 28 28 29 29 29 29 28 28 28 30 30 30 30 29 29 28 27 27 27 27 27 27 28 28 27
30 30 31 30 30 30 30 29 29 30 29 29 29 29 28 28 28 28 28 28 28 29 29 30 30 30 29 29 30 31 32 32 31 30 30 29 29 29 29 28 28 29 29 29
30 30 32 32 31 31 31 30 30 30 30 30 30 30 29 29 29 29 28 29 29 29 30 30 31 30 30 30 31 31 31 33 32 32 31 31 31 31 30 31 30 30 29 30
31 31 32 32 32 33 32 32 31 31 31 31 31 31 31 30 30 30 30 30 30 30 30 31 31 31 31 31 32 32 32 33 34 33 33 32 33 33 32 32 31 31 31 30
31 31 31 31 32 33 33 32 32 31 31 32 31 31 31 31 31 31 31 31 31 31 32 32 31 31 31 32 32 32 33 33 33 34 34 33 33 33 33 32 32 32 32 32
30 31 31 31 32 32 33 33 32 32 32 32 32 32 31 31 31 32 32 32 33 33 33 33 32 33 33 33 33 33 33 33 34 34 34 33 33 32 32 32 32 32 32 32
30 31 32 32 32 32 32 33 33 33 33 33 33 32 32 32 32 32 32 32 32 33 33 33 34 34 33 34 34 33 34 34 35 34 34 34 34 33 32 32 32 32 32 32
30 30 31 31 31 31 31 32 32 32 32 32 33 33 33 34 33 33 33 34 33 33 33 33 33 34 34 34 34 34 34 34 35 35 35 34 34 35 35 35 34 33 33 33
29 29 30 30 30 31 31 30 30 31 31 31 32 32 33 33 33 33 33 33 33 33 33 33 34 35 34 34 33 33 34 34 33 33 33 33 33 33 34 33 33 32 32 32
28 28 29 29 29 29 29 29 30 30 31 31 31 31 31 31 32 32 32 32 32 32 32 33 34 34 34 34 34 34 34 33 33 33 32 31 32 32 32 31 31 31 31 31
26 26 27 27 28 28 28 28 29 29 29 30 31 31 31 31 31 32 32 32 32 31 32 33 33 33 34 34 34 34 34 33 33 32 32 32 32 31 31 31 30 31 31 31
25 26 26 26 27 28 28 28 28 29 29 30 30 30 31 31 31 32 32 32 31 31 31 31 31 31 32 32 33 33 32 32 32 32 32 32 31 31 31 30 30 31 31 31
25 26 26 26 27 27 28 29 29 29 29 29 29 28 29 29 30 30 30 30 30 30 30 30 30 30 29 30 31 31 31 31 31 32 31 31 31 31 30 30 30 30 30 31
25 26 27 27 27 27 27 27 27 27 27 27 26 26 27 27 28 28 28 29 29 29 29 29 29 29 28 28 28 28 28 28 29 30 30 30 30 30 30 30 30 30 30 31
24 25 26 26 27 26 26 25 25 25 25 25 26 26 26 27 27 27 27 27 28 28 27 27 28 27 27 27 26 26 27 27 28 28 29 29 29 29 29 29 30 30 30 30
24 24 24 24 25 25 25 25 25 25 25 25 25 26 26 25 25 25 25 25 25 25 25 25 25 26 25 25 25 26 26 27 28 28 29 29 29 29 29 29 30 29 29 29
24 24 24 24 24 24 24 24 24 24 23 23 23 24 23 23 23 23 23 23 23 23 23 24 24 24 24 25 26 26 26 27 27 28 29 29 29 29 29 29 29 28 27 28
24 24 24 24 24 24 24 24 24 23 23 23 23 23 23 23 23 23 23 22 22 22 22 23 23 24 25 25 26 27 27 27 27 27 27 28 28 28 29 29 29 28 27 27
Wind_Direction
257 255 254 254 254 254 257 259 260 262 262 262 260 260 260 260 260 259 256 256 254 254 253 254 256 259 261 263 268 270 272 274 275 275 275 277 277 277 278 280 281 284 286 286
257 256 256 254 254 255 257 258 258 259 261 262 261 260 260 259 258 259 257 256 255 254 253 253 255 257 259 263 266 269 271 273 273 273 275 276 278 278 278 279 280 281 284 285
258 259 258 256 256 256 257 257 258 259 260 260 260 259 260 260 259 258 257 258 257 255 254 253 255 257 259 262 265 269 270 271 273 274 275 276 277 277 277 278 279 281 283 284
258 259 259 260 259 259 260 261 260 259 258 259 258 260 261 261 261 261 261 260 259 259 257 257 256 257 259 261 264 267 268 269 271 272 275 277 277 276 277 278 278 280 283 284
259 259 262 261 260 260 262 261 260 260 260 260 259 260 260 261 262 262 261 262 262 261 259 258 258 259 261 262 264 265 266 266 268 271 274 276 276 275 276 277 278 279 281 282
261 260 261 262 261 262 263 261 260 260 261 262 263 263 262 263 264 265 263 262 263 263 261 261 261 262 263 263 264 265 265 265 268 270 272 273 274 274 274 275 276 278 279 281
260 261 262 261 261 262 263 264 264 262 262 262 263 265 265 264 265 266 266 264 263 263 262 262 263 264 264 266 265 265 266 267 268 270 271 272 274 275 275 275 276 278 279 281
259 260 262 262 262 262 263 265 264 263 263 263 264 265 266 265 266 266 266 265 263 262 262 262 263 264 264 265 265 265 265 267 268 269 270 271 273 275 276 276 277 278 279 281
261 262 263 264 263 262 263 263 264 265 265 265 265 266 267 269 269 268 267 265 263 262 262 261 262 263 264 263 264 264 264 266 267 269 270 272 273 274 275 277 278 278 279 281
262 262 262 263 263 262 263 264 264 264 264 264 265 267 268 270 270 270 269 267 265 262 262 262 261 262 262 263 264 264 264 264 267 269 270 271 272 273 274 276 278 278 279 280
263 263 262 262 262 263 263 264 265 264 264 265 265 266 267 268 269 270 268 268 267 263 263 263 263 263 262 262 263 264 263 264 266 268 267 267 269 271 273 276 277 278 279 280
264 262 262 261 261 261 262 263 264 265 265 265 265 266 266 267 268 269 269 269 268 267 263 261 262 263 263 263 264 264 264 265 266 267 267 267 269 270 272 274 276 277 278 280
263 262 262 262 261 261 262 264 265 265 266 266 265 265 265 266 268 269 268 269 269 267 264 262 262 263 264 264 264 265 265 265 265 266 267 268 270 271 272 274 276 276 278 280
262 263 262 262 262 261 261 263 264 265 266 266 267 267 266 265 264 266 268 267 267 268 267 264 262 263 264 265 265 266 266 266 266 267 267 268 270 270 271 273 276 277 278 280
262 263 263 262 262 262 261 262 264 265 266 266 267 267 268 266 265 266 266 266 265 267 267 263 262 263 264 265 266 266 266 266 266 267 268 268 270 270 270 271 273 274 275 278
262 262 263 263 262 262 262 263 264 265 266 267 267 266 266 266 266 267 266 265 265 266 266 263 262 263 264 266 266 266 266 267 268 268 268 269 270 270 270 271 273 274 275 276
262 262 263 264 263 263 264 265 266 266 266 267 267 266 265 265 266 267 266 266 266 266 265 263 262 262 262 264 265 266 267 267 266 266 267 268 268 269 270 270 272 273 274 275
263 261 262 263 264 265 265 265 265 266 267 267 268 267 266 266 267 267 267 267 266 266 266 264 262 261 262 263 264 266 266 266 265 265 266 267 268 269 269 270 272 273 274 276
263 262 262 263 265 264 264 264 265 266 267 267 267 268 267 267 267 267 267 268 267 267 266 265 263 263 263 262 263 266 267 265 264 264 264 266 269 269 269 271 272 273 275 277
262 262 263 264 264 263 264 265 266 267 267 267 267 267 268 268 268 269 269 269 269 268 268 267 264 263 263 264 264 265 266 265 263 262 263 266 268 269 271 272 272 273 274 276
262 263 264 266 265 265 265 266 267 268 269 269 269 269 270 270 271 270 270 270 270 270 269 268 266 264 263 264 264 265 266 264 261 261 262 264 267 270 271 271 273 274 275 277
263 264 265 266 267 268 268 268 268 269 270 271 271 271 271 271 272 272 272 271 270 269 268 266 265 264 265 265 264 263 263 263 262 260 261 264 267 269 271 272 273 275 276 278
265 265 267 268 269 268 268 268 268 270 271 271 271 271 271 272 272 272 273 272 270 269 268 266 266 265 265 266 264 264 264 263 263 262 263 265 267 268 270 271 274 276 278 279
264 266 267 268 268 267 268 268 270 271 272 271 270 271 272 273 274 273 272 272 271 270 267 265 264 265 266 267 266 266 264 263 265 265 263 264 266 269 271 273 275 277 278 278
265 267 268 267 265 265 267 268 269 271 272 271 271 271 272 273 274 274 273 272 271 270 267 265 264 264 264 265 266 267 268 267 267 267 265 264 266 268 271 274 276 277 278 278
266 266 267 267 264 263 263 265 268 269 270 270 269 269 270 272 273 273 272 272 271 271 269 267 265 263 264 266 267 268 269 270 270 268 267 266 266 268 272 275 276 275 276 278
265 265 265 265 264 264 264 265 265 266 268 268 268 268 268 270 272 271 271 270 270 269 268 267 266 265 265 266 267 268 269 271 272 271 268 267 266 268 271 274 276 275 276 280